Weather History for New Bedford, MA

Change the Weather History Date:

Tuesday, November 22, 2011

  Actual Average Record
Temperature  
Mean Temperature 36 °F -  
Max Temperature 46 °F 48 °F 64 °F (1982)
Min Temperature 27 °F 35 °F 13 °F (1987)
Degree Days  
Heating Degree Days 28    
Moisture  
Dew Point 33 °F    
Average Humidity 78    
Maximum Humidity 96    
Minimum Humidity 52    
Precipitation  
Precipitation 0.09 in - - ()
Sea Level Pressure  
Sea Level Pressure 30.33 in    
Wind  
Wind Speed 2 mph (ESE)    
Max Wind Speed 8 mph    
Max Gust Speed -    
Visibility 8 miles    
Events Rain    
Averages and records for this station are not official NWS values.
T = Trace of Precipitation, MM = Missing Value Source: NWS Daily Summary

Daily Weather History Graph

Daily Weather History Graph

Search for Another Location

Airport:

Trip Planner

Search our weather history database for the weather conditions in past years. The results will help you decide how hot, cold, wet, or windy it might be!

Date:

Astronomy

Nov. 22, 2011 Rise Set
Actual Time 6:40 AM EST 4:18 PM EST
Civil Twilight 6:10 AM EST 4:48 PM EST
Nautical Twilight 5:36 AM EST 5:22 PM EST
Astronomical Twilight 5:03 AM EST 5:55 PM EST
Moon 3:25 AM EST (11/22) 2:17 PM EST (11/22)
Length of Visible Light 10h 38m
Length of Day
9h 37m
Waning Crescent, 9% of the Moon is Illuminated
Nov 22
Waning Crescent
Nov 25
New
Dec 2
First Quarter
Dec 10
Full
Dec 17
Last Quarter

Hourly Weather History & Observations

Time (EST) Temp. Windchill Dew Point Humidity Pressure Visibility Wind Dir Wind Speed Gust Speed Precip Events Conditions
12:53 AM 28.9 °F - 27.0 °F 92% 30.36 in 7.0 mi Calm Calm - N/A   Clear
1:53 AM 28.9 °F - 27.0 °F 92% 30.35 in 8.0 mi Calm Calm - N/A   Clear
2:53 AM 28.0 °F - 26.1 °F 92% 30.36 in 7.0 mi Calm Calm - N/A   Clear
3:53 AM 27.0 °F - 26.1 °F 96% 30.37 in 5.0 mi Calm Calm - N/A   Clear
4:53 AM 27.0 °F - 26.1 °F 96% 30.38 in 4.0 mi Calm Calm - N/A   Clear
5:53 AM 30.0 °F - 28.0 °F 92% 30.40 in 7.0 mi Calm Calm - N/A   Clear
6:53 AM 28.0 °F - 26.1 °F 92% 30.40 in 5.0 mi Calm Calm - N/A   Clear
7:53 AM 30.9 °F - 30.0 °F 96% 30.40 in 10.0 mi Calm Calm - N/A   Clear
8:53 AM 39.0 °F - 35.1 °F 86% 30.41 in 10.0 mi Calm Calm - N/A   Clear
9:53 AM 44.1 °F 41.5 °F 33.1 °F 65% 30.41 in 10.0 mi East 4.6 mph - N/A   Clear
10:53 AM 46.4 °F 43.5 °F 32.0 °F 57% 30.38 in 10.0 mi SE 5.8 mph - N/A   Clear
11:53 AM 46.9 °F - 30.9 °F 54% 30.37 in 10.0 mi Variable 3.5 mph - N/A   Overcast
12:53 PM 46.9 °F - 30.0 °F 52% 30.35 in 10.0 mi Calm Calm - N/A   Clear
1:53 PM 46.9 °F - 30.0 °F 52% 30.33 in 10.0 mi South 4.6 mph - N/A   Overcast
2:53 PM 46.9 °F - 32.0 °F 56% 30.32 in 10.0 mi SE 6.9 mph - N/A   Overcast
3:53 PM 46.0 °F 43.9 °F 34.0 °F 63% 30.33 in 10.0 mi ESE 4.6 mph - N/A   Overcast
4:53 PM 45.0 °F 41.8 °F 34.0 °F 65% 30.34 in 10.0 mi SSE 5.8 mph - N/A   Overcast
5:53 PM 44.1 °F 42.5 °F 34.0 °F 68% 30.33 in 10.0 mi East 3.5 mph - N/A   Partly Cloudy
6:53 PM 44.1 °F 41.5 °F 34.0 °F 68% 30.32 in 10.0 mi East 4.6 mph - N/A   Clear
7:53 PM 42.8 °F 40.1 °F 35.6 °F 76% 30.28 in 10.0 mi ENE 4.6 mph - N/A   Partly Cloudy
8:53 PM 43.0 °F 40.3 °F 36.0 °F 76% 30.27 in 10.0 mi ENE 4.6 mph - N/A   Partly Cloudy
9:53 PM 42.1 °F 39.2 °F 37.9 °F 85% 30.25 in 10.0 mi ENE 4.6 mph - 0.01 in Rain Light Rain
10:53 PM 42.8 °F 39.3 °F 39.2 °F 87% 30.21 in 6.0 mi East 5.8 mph - N/A Rain Light Rain
11:20 PM 42.8 °F 38.6 °F 41.0 °F 93% 30.19 in 5.0 mi East 6.9 mph - 0.04 in Rain Light Rain
11:32 PM 42.8 °F 38.6 °F 41.0 °F 93% 30.18 in 5.0 mi East 6.9 mph - 0.05 in Rain Light Rain
11:53 PM 45.0 °F 40.6 °F 42.1 °F 90% 30.17 in 5.0 mi ESE 8.1 mph - 0.08 in Rain Light Rain